Content
SEND FEEDBACK

Daily
Averages
Monthly
Summary
United States of America

FORT LEE, NEW JERSEY


Home > North America > United States > New Jersey
Elevation: 128 feet     Latitude: 40 46N     Longitude: 073 58W

WEATHER
 
SELECT A DAY
Number of Records: 148,328;   Date Range: 11/1/95 - 9/18/14
 
SHARE

PRINT THIS DATA

[ ← Previous Day ]
WEATHER ALMANAC - FEBRUARY 28, 2013
[ Next Day → ]
[ °C ]   °F
Weather ElementAverageHighLow
Temperature44.5 °F48.9 °F (11:51 am)39 °F (11:51 pm)
Dewpoint31.7 °F36 °F (6:51 am)26.1 °F (7:51 pm)
Humidity61.5 %76 % (6:51 am)48 % (1:51 pm)
Barometer29.59 in29.64 in (8:07 am)29.55 in (12:51 pm)
Wind Speed4.7 mph9.2 mph (4:51 pm)
Wind Gust17.3 mph (10:51 pm)
Weather ElementAverage
Visibility9.8 mi
Wind DirectionSE (132.4 °)

Weather ElementTotal
Precipitation---
Heating Degree Days21.1 (Base 65)
Averaged from 25 records on February 28, 2013
WEATHER CONDITIONS BREAKOUT
WIND DIRECTION BREAKOUT
WEATHER BY HOUR - FEBRUARY 28, 2013
[ °C ]   °F
Local TimeTemperatureDewpointHumidityBarometerVisibilityWind DirectionWind SpeedGust SpeedPrecipitationEventsConditions
1:51 AM45.0 °F35.1 °F68 %29.61 in10.0 miCalmOvercast
2:51 AM45.0 °F35.1 °F68 %29.60 in10.0 miVariable3.5 mphOvercast
3:51 AM45.0 °F35.1 °F68 %29.60 in10.0 miVariable3.5 mphOvercast
4:51 AM45.0 °F34.0 °F65 %29.60 in10.0 miSSW (210°)4.6 mphOvercast
5:51 AM44.1 °F35.1 °F71 %29.60 in10.0 miWest (280°)3.5 mphOvercast
6:51 AM43.0 °F36.0 °F76 %29.61 in7.0 miWest (260°)4.6 mph0.00 inRainLight Rain
7:44 AM43.0 °F35.1 °F74 %29.63 in9.0 miWest (260°)4.6 mph0.00 inOvercast
7:51 AM44.1 °F35.1 °F71 %29.61 in9.0 miVariable3.5 mph0.00 inOvercast
8:07 AM44.1 °F35.1 °F71 %29.64 in10.0 miWest (260°)8.1 mphMostly Cloudy
8:51 AM44.1 °F34.0 °F68 %29.62 in10.0 miCalmOvercast
9:51 AM45.0 °F35.1 °F68 %29.62 in10.0 miVariable4.6 mphMostly Cloudy
10:51 AM46.9 °F34.0 °F61 %29.59 in10.0 miVariable3.5 mphClear
11:51 AM48.9 °F32.0 °F52 %29.57 in10.0 miWest (260°)6.9 mphClear
12:51 PM48.0 °F30.0 °F50 %29.55 in10.0 miVariable3.5 mphOvercast
1:51 PM48.0 °F28.9 °F48 %29.55 in10.0 miCalmOvercast
2:51 PM46.9 °F28.0 °F48 %29.55 in10.0 miVariable4.6 mphOvercast
3:51 PM46.0 °F28.9 °F51 %29.55 in10.0 miWNW (290°)5.8 mphOvercast
4:51 PM45.0 °F28.9 °F53 %29.55 in10.0 miWNW (300°)9.2 mphOvercast
5:51 PM45.0 °F28.0 °F52 %29.56 in10.0 miVariable3.5 mphOvercast
6:51 PM44.1 °F28.9 °F55 %29.57 in10.0 miVariable5.8 mphOvercast
7:51 PM44.1 °F26.1 °F49 %29.58 in10.0 miWest (280°)5.8 mphOvercast
8:51 PM43.0 °F28.0 °F56 %29.60 in10.0 miWNW (300°)5.8 mphOvercast
9:51 PM41.0 °F28.9 °F62 %29.60 in10.0 miWNW (300°)6.9 mphOvercast
10:51 PM39.9 °F28.9 °F65 %29.61 in10.0 miVariable6.9 mph17.3 mphOvercast
11:51 PM39.0 °F28.9 °F67 %29.60 in10.0 miNW (310°)8.1 mphClear
Hourly data recorded from KNYC, located miles away from Fort Lee, New Jersey







STORIES FROM OUR PARTNERS